DB0LC-2 Weather Reports


Display with metric or nautical units.
time (UTC)temp
F
wind
direction
speed
MPH
gust
MPH
rain 1hr
in
rain 24hr
in
rain mn
in
humidity
%
barometer
mb
20260901005827 68 0 0.0 0.0 0.00 0.00 0.00 61 919.2
20260901004747 68 0 0.0 0.0 0.00 0.00 0.00 60 919.0
20260901003710 69 0 0.0 0.0 0.00 0.00 0.00 60 918.8
20260901002621 68 0 0.0 0.0 0.00 0.00 0.00 61 919.0
20260901001521 68 0 0.0 0.0 0.00 0.00 0.00 60 919.1
20260901000443 69 0 0.0 0.0 0.00 0.00 0.00 60 919.1
20260831235351 68 0 0.0 0.0 0.00 0.00 0.00 61 919.1
20260831234315 67 0 0.0 0.0 0.00 0.00 0.00 60 919.1
20260831232137 68 0 0.0 0.0 0.00 0.00 0.00 61 919.1
20260831231037 68 0 0.0 0.0 0.00 0.00 0.00 59 919.0
20260831230010 68 0 0.0 0.0 0.00 0.00 0.00 61 919.0
20260831224933 68 0 0.0 0.0 0.00 0.00 0.00 61 919.0
20260831223834 67 0 0.0 0.0 0.00 0.00 0.00 59 919.1
20260831223832 67 0 0.0 0.0 0.00 0.00 0.00 59 919.0
20260831221708 68 0 0.0 0.0 0.00 0.00 0.00 61 919.0
20260831220610 68 0 0.0 0.0 0.00 0.00 0.00 58 919.0
20260831215505 68 0 0.0 0.0 0.00 0.00 0.00 61 919.1
20260831214441 68 0 0.0 0.0 0.00 0.00 0.00 61 919.0
20260831213302 68 0 0.0 0.0 0.00 0.00 0.00 57 918.9
20260831213300 68 0 0.0 0.0 0.00 0.00 0.00 57 919.0
20260831212200 68 0 0.0 0.0 0.00 0.00 0.00 61 918.8
20260831211112 68 0 0.0 0.0 0.00 0.00 0.00 60 918.8
20260831210014 68 0 0.0 0.0 0.00 0.00 0.00 60 918.7
20260831205000 68 0 0.0 0.0 0.00 0.00 0.00 61 918.8
20260831203921 68 0 0.0 0.0 0.00 0.00 0.00 58 918.7
20260831202833 68 0 0.0 0.0 0.00 0.00 0.00 61 918.6
20260831202831 68 0 0.0 0.0 0.00 0.00 0.00 61 918.7
20260831201755 68 0 0.0 0.0 0.00 0.00 0.00 61 918.6
20260831200706 68 0 0.0 0.0 0.00 0.00 0.00 57 918.4
20260831195605 68 0 0.0 0.0 0.00 0.00 0.00 61 918.3
20260831194505 68 0 0.0 0.0 0.00 0.00 0.00 60 918.3
20260831193406 69 0 0.0 0.0 0.00 0.00 0.00 60 918.3
20260831192316 68 0 0.0 0.0 0.00 0.00 0.00 61 918.4
20260831191239 68 0 0.0 0.0 0.00 0.00 0.00 60 918.1
20260831190203 69 0 0.0 0.0 0.00 0.00 0.00 61 917.9
20260831185133 68 0 0.0 0.0 0.00 0.00 0.00 61 917.8
20260831185131 68 0 0.0 0.0 0.00 0.00 0.00 61 917.8
20260831184041 68 0 0.0 0.0 0.00 0.00 0.00 59 917.6
20260831181927 68 0 0.0 0.0 0.00 0.00 0.00 61 917.1
20260831180858 68 0 0.0 0.0 0.00 0.00 0.00 58 916.9
20260831175822 68 0 0.0 0.0 0.00 0.00 0.00 61 916.7
20260831174747 68 0 0.0 0.0 0.00 0.00 0.00 61 916.7
20260831173707 69 0 0.0 0.0 0.00 0.00 0.00 60 916.6
20260831172606 68 0 0.0 0.0 0.00 0.00 0.00 61 916.4
20260831171517 68 0 0.0 0.0 0.00 0.00 0.00 59 916.2
20260831170409 68 0 0.0 0.0 0.00 0.00 0.00 62 916.0
20260831165257 68 0 0.0 0.0 0.00 0.00 0.00 60 915.9
20260831164208 68 0 0.0 0.0 0.00 0.00 0.00 62 916.0
20260831164205 68 0 0.0 0.0 0.00 0.00 0.00 62 916.0
20260831163151 67 0 0.0 0.0 0.00 0.00 0.00 61 916.0
20260831162104 68 0 0.0 0.0 0.00 0.00 0.00 57 915.9
20260831161032 68 0 0.0 0.0 0.00 0.00 0.00 60 915.9
20260831153849 69 0 0.0 0.0 0.00 0.00 0.00 59 915.8
20260831153846 69 0 0.0 0.0 0.00 0.00 0.00 59 915.8
20260831152745 68 0 0.0 0.0 0.00 0.00 0.00 61 915.9
20260831151709 68 0 0.0 0.0 0.00 0.00 0.00 59 916.0
20260831150633 68 0 0.0 0.0 0.00 0.00 0.00 61 916.1
20260831145613 68 0 0.0 0.0 0.00 0.00 0.00 61 916.1
20260831144557 69 0 0.0 0.0 0.00 0.00 0.00 60 916.0
20260831143523 68 0 0.0 0.0 0.00 0.00 0.00 61 916.0
20260831142456 68 0 0.0 0.0 0.00 0.00 0.00 59 916.0
20260831140434 68 0 0.0 0.0 0.00 0.00 0.00 61 916.1
20260831140432 68 0 0.0 0.0 0.00 0.00 0.00 61 916.2
20260831133411 68 0 0.0 0.0 0.00 0.00 0.00 59 916.2
20260831133408 68 0 0.0 0.0 0.00 0.00 0.00 59 916.2
20260831132355 69 0 0.0 0.0 0.00 0.00 0.00 61 916.2
20260831131340 68 0 0.0 0.0 0.00 0.00 0.00 61 916.2
20260831130321 68 0 0.0 0.0 0.00 0.00 0.00 57 916.4
20260831125306 69 0 0.0 0.0 0.00 0.00 0.00 61 916.4
20260831124250 68 0 0.0 0.0 0.00 0.00 0.00 61 916.5
20260831123242 68 0 0.0 0.0 0.00 0.00 0.00 58 916.4
20260831122213 69 0 0.0 0.0 0.00 0.00 0.00 61 916.5
20260831121136 68 0 0.0 0.0 0.00 0.00 0.00 62 916.6
20260831120113 68 0 0.0 0.0 0.00 0.00 0.00 59 916.6
20260831115047 69 0 0.0 0.0 0.00 0.00 0.00 61 916.6
20260831114048 68 0 0.0 0.0 0.00 0.00 0.00 62 916.6
20260831113040 68 0 0.0 0.0 0.00 0.00 0.00 59 916.5
20260831112011 69 0 0.0 0.0 0.00 0.00 0.00 61 916.5
20260831111012 68 0 0.0 0.0 0.00 0.00 0.00 61 916.8
20260831105936 68 0 0.0 0.0 0.00 0.00 0.00 60 916.6
20260831105934 68 0 0.0 0.0 0.00 0.00 0.00 60 916.5
20260831104858 69 0 0.0 0.0 0.00 0.00 0.00 61 916.5
20260831103901 68 0 0.0 0.0 0.00 0.00 0.00 62 916.6
20260831102849 68 0 0.0 0.0 0.00 0.00 0.00 61 916.4
20260831102847 68 0 0.0 0.0 0.00 0.00 0.00 61 916.5
20260831101835 69 0 0.0 0.0 0.00 0.00 0.00 59 916.4
20260831100732 68 0 0.0 0.0 0.00 0.00 0.00 62 916.5
20260831095657 68 0 0.0 0.0 0.00 0.00 0.00 61 916.5
20260831094606 68 0 0.0 0.0 0.00 0.00 0.00 58 916.5
20260831093505 68 0 0.0 0.0 0.00 0.00 0.00 61 916.6
20260831092444 68 0 0.0 0.0 0.00 0.00 0.00 62 916.5
20260831085342 68 0 0.0 0.0 0.00 0.00 0.00 61 916.5
20260831084234 68 0 0.0 0.0 0.00 0.00 0.00 60 916.3
20260831082203 68 0 0.0 0.0 0.00 0.00 0.00 61 916.3
20260831081146 68 0 0.0 0.0 0.00 0.00 0.00 60 916.2
20260831080124 68 0 0.0 0.0 0.00 0.00 0.00 62 916.1
20260831075032 68 0 0.0 0.0 0.00 0.00 0.00 61 916.0
20260831073958 68 0 0.0 0.0 0.00 0.00 0.00 58 915.9
20260831072952 68 0 0.0 0.0 0.00 0.00 0.00 61 915.7
20260831071930 68 0 0.0 0.0 0.00 0.00 0.00 62 915.7
20260831070928 68 0 0.0 0.0 0.00 0.00 0.00 59 915.6
20260831065903 69 0 0.0 0.0 0.00 0.00 0.00 61 915.5
20260831064838 68 0 0.0 0.0 0.00 0.00 0.00 62 915.5
20260831063827 68 0 0.0 0.0 0.00 0.00 0.00 61 915.5
20260831062815 69 0 0.0 0.0 0.00 0.00 0.00 59 915.4
20260831061802 68 0 0.0 0.0 0.00 0.00 0.00 62 915.3
20260831060724 68 0 0.0 0.0 0.00 0.00 0.00 61 915.2
20260831055706 68 0 0.0 0.0 0.00 0.00 0.00 56 915.2
20260831054625 68 0 0.0 0.0 0.00 0.00 0.00 62 915.2
20260831052545 68 0 0.0 0.0 0.00 0.00 0.00 56 915.0
20260831051541 68 0 0.0 0.0 0.00 0.00 0.00 62 915.0
20260831050520 68 0 0.0 0.0 0.00 0.00 0.00 61 915.0
20260831045510 69 0 0.0 0.0 0.00 0.00 0.00 59 915.1
20260831044444 68 0 0.0 0.0 0.00 0.00 0.00 62 914.9
20260831042419 68 0 0.0 0.0 0.00 0.00 0.00 56 915.0
20260831041357 68 0 0.0 0.0 0.00 0.00 0.00 62 915.0
20260831040343 68 0 0.0 0.0 0.00 0.00 0.00 61 914.9
20260831034309 68 0 0.0 0.0 0.00 0.00 0.00 61 915.0
20260831034307 68 0 0.0 0.0 0.00 0.00 0.00 61 914.9
20260831033244 68 0 0.0 0.0 0.00 0.00 0.00 61 915.1
20260831032230 68 0 0.0 0.0 0.00 0.00 0.00 57 915.0
20260831031206 68 0 0.0 0.0 0.00 0.00 0.00 62 915.1
20260831025129 68 0 0.0 0.0 0.00 0.00 0.00 58 914.9
20260831024116 68 0 0.0 0.0 0.00 0.00 0.00 62 915.0
20260831023051 68 0 0.0 0.0 0.00 0.00 0.00 62 914.9
20260831021020 68 0 0.0 0.0 0.00 0.00 0.00 62 915.1
20260831020015 68 0 0.0 0.0 0.00 0.00 0.00 62 915.0
20260831015003 68 0 0.0 0.0 0.00 0.00 0.00 57 915.3
20260831013924 68 0 0.0 0.0 0.00 0.00 0.00 62 915.3
20260831012846 68 0 0.0 0.0 0.00 0.00 0.00 61 915.0
20260831011746 69 0 0.0 0.0 0.00 0.00 0.00 61 914.6
20260831010707 68 0 0.0 0.0 0.00 0.00 0.00 61 913.6
20260831010705 68 0 0.0 0.0 0.00 0.00 0.00 61 913.7